[[{"header":{"parameterUnit":"m.s-1","parameterCategory":1,"la1":30.2991,"la2":30.254,"lo1":-89.0895,"lo2":-89.0444,"dy":0.0017,"dx":0.0017,"nx":28,"ny":28,"refTime":"2023-11-07T03:00:00:Z","depth":0,"parameterNumber":2,"parameterNumberName":"U-component_of_WINDS"},"data":[0,0,0,0,0,0,0,0,0,0,0,0,0,0,0,0,0,0,0,0,0,0,0,0,0,0,0,0,0,0,0,0,0,0,0,0,0,0,0,0,0,0,0,0,0,0,0,0,0,0,0,0,0,0,0,0,0,0,1.2927,1.2929,0,1.306,1.3061,1.3063,1.306,1.3059,1.3057,1.3055,1.3191,1.3196,1.3201,0,0,0,0,0,0,0,0,0,0,0,0,0,1.2671,1.2676,1.2927,1.2929,1.293,1.3059,1.3061,1.3063,1.3061,1.3058,1.3056,1.3054,1.3189,1.3195,1.3202,0,0,0,0,0,0,0,0,0,0,0,0,0,1.2791,1.2678,1.2927,1.2945,1.2948,1.3059,1.3061,1.3064,1.3061,1.3058,1.3056,1.3053,1.3187,1.3195,1.3202,1.3305,0,0,1.3227,1.323,0,0,0,0,0,0,0,0,1.2784,1.28,1.294,1.2944,1.2947,1.3041,1.3021,1.3144,1.3062,1.3018,1.3055,1.3052,1.3143,1.3154,1.3185,1.3311,1.3317,1.3227,1.3232,1.3236,1.3238,0,0,0,0,0,0,0,1.2776,1.2795,1.2979,1.2942,1.2947,1.2946,1.296,1.3044,1.3094,1.3022,1.3022,1.3037,1.3144,1.3177,1.3188,1.3319,1.3227,1.3234,1.3239,1.3242,1.3535,1.3538,0,0,0,0,0,0,1.2764,1.2788,1.2975,1.2983,1.2857,1.2953,1.2969,1.3013,1.3093,1.3103,1.304,1.3037,1.3165,1.3179,1.3193,1.3318,1.3235,1.3243,1.3247,1.3532,1.3536,1.3539,0,0,0,0,0,0,1.2759,1.2781,1.297,1.2886,1.291,1.296,1.301,1.3017,1.3051,1.3107,1.3115,1.3064,1.3164,1.3182,1.3277,1.3322,1.3246,1.3254,1.3529,1.3534,1.3538,1.3568,0,0,0,0,0,0,1.2751,1.2779,1.2818,1.2887,1.2914,1.3052,1.3013,1.3022,1.3064,1.3062,1.3132,1.3141,1.3163,1.3265,1.3285,1.3332,1.326,1.3525,1.3531,1.3536,1.3564,1.3573,1.3582,0,0,0,0,0,1.2742,1.2822,1.282,1.2843,1.2965,1.3054,1.307,1.3094,1.3068,1.3108,1.3144,1.3139,1.3314,1.3275,1.3297,1.3347,1.3522,1.3529,1.3536,1.3559,1.3571,1.3582,0,0,0,0,0,0,1.2757,1.2831,1.283,1.2934,1.2988,1.3054,1.3105,1.3106,1.3168,1.3163,1.319,1.3206,1.3301,1.3334,1.3288,1.345,1.3415,1.3427,1.3425,1.3437,1.3446,1.3436,1.3266,0,0,0,0,0,1.2772,1.2839,1.29,1.2986,1.3013,1.3054,1.3094,1.3108,1.3165,1.3187,1.323,1.3286,1.3353,1.3397,1.3462,1.3568,1.3583,1.3614,1.3623,1.363,1.364,1.3698,1.3712,1.3562,1.3562,1.3562,0,0,1.2805,1.2853,1.2894,1.299,1.3033,1.3102,1.3074,1.3147,1.3198,1.3199,1.3291,1.3325,1.3388,1.3489,1.3535,1.3519,1.3685,1.3639,1.3644,1.365,1.3706,1.3721,1.3733,1.3567,1.3566,1.3565,0,0,1.2898,1.2942,1.3018,1.3063,1.3129,1.3156,1.3174,1.324,1.3262,1.3356,1.3357,1.3418,1.3534,1.3579,1.3617,1.3729,1.3726,1.3749,1.3797,1.3853,1.3865,1.3876,1.3915,1.3929,1.3759,1.3759,1.3759,0,1.293,1.3034,1.3057,1.3132,1.3174,1.3178,1.3255,1.3297,1.3381,1.341,1.339,1.3536,1.3579,1.369,1.3717,1.3748,1.377,1.3741,1.3862,1.3872,1.3883,1.392,1.3935,1.3761,1.3761,1.3761,1.376,0,1.3069,1.3141,1.3195,1.3276,1.3324,1.34,1.3435,1.3481,1.349,1.3519,1.3614,1.3666,1.3741,1.3769,1.3779,1.3882,1.387,1.3856,1.3821,1.3899,1.3935,1.3949,1.3764,1.3764,1.3763,1.3762,0,0,1.3175,1.3269,1.3289,1.3325,1.3399,1.3455,1.353,1.3605,1.3643,1.3701,1.3765,1.3863,1.3851,1.3894,1.3909,1.3959,1.4043,1.3939,1.394,1.3956,1.4159,1.4168,1.4185,1.4042,1.4045,1.4047,1.4153,0,1.3277,1.3411,1.3435,1.3552,1.3619,1.3623,1.3689,1.3741,1.3771,1.3831,1.3863,1.3932,1.3911,1.3937,1.3986,1.4022,1.4084,1.4015,1.4101,1.4104,1.4084,1.4204,1.4214,1.4312,1.4168,1.417,1.4172,0,1.3412,1.3474,1.3598,1.3663,1.3691,1.375,1.382,1.3878,1.3937,1.3955,1.4003,1.4013,1.4091,1.4053,1.4161,1.4113,1.415,1.4173,1.4178,1.4186,1.4142,1.4215,1.4344,1.4358,1.4194,1.4192,1.4191,0,1.3477,1.3591,1.368,1.3711,1.3789,1.383,1.3864,1.3921,1.3964,1.4025,1.4053,1.4123,1.4161,1.4214,1.4242,1.4211,1.4348,1.4312,1.4364,1.4364,1.4392,1.439,1.4529,1.4417,1.4417,1.4417,1.4416,0,1.3587,1.3662,1.371,1.3764,1.3849,1.3876,1.3959,1.3992,1.4043,1.4104,1.4112,1.4169,1.4203,1.4265,1.4287,1.4373,1.439,1.4406,1.4411,1.4405,1.4403,1.4429,1.4423,1.4421,1.442,1.4419,1.4418,0,1.3672,1.3707,1.3805,1.387,1.3889,1.3948,1.4005,1.4058,1.4087,1.4164,1.4184,1.423,1.4303,1.4336,1.4426,1.4441,1.4539,1.4539,1.4519,1.4521,1.4571,1.4566,1.4731,1.4753,1.4627,1.4628,1.4629,0,1.374,1.3798,1.3871,1.3912,1.3948,1.4015,1.4059,1.4088,1.4133,1.4205,1.425,1.4323,1.4384,1.45,1.4542,1.4611,1.4612,1.4665,1.4623,1.4615,1.4612,1.4608,1.4614,1.4673,1.4674,1.4675,1.4676,0,1.3856,1.387,1.3934,1.4004,1.4057,1.4113,1.4168,1.4202,1.4239,1.429,1.4365,1.4412,1.4504,1.4577,1.4649,1.4684,1.4686,1.4689,1.4705,1.4699,1.4685,1.4693,1.454,1.4685,1.4684,1.4684,1.4683,1.4683,1.3934,1.3986,1.4046,1.4116,1.4161,1.4212,1.4265,1.4302,1.4365,1.4443,1.4456,1.4536,1.4594,1.469,1.4728,1.4791,1.4778,1.4801,1.4806,1.4811,1.4814,1.4675,1.4804,1.4804,1.4803,1.4803,1.4803,0,1.405,1.4089,1.4153,1.4231,1.4286,1.4284,1.4345,1.4392,1.4462,1.4516,1.4575,1.4662,1.4732,1.4779,1.4851,1.4892,1.4895,1.491,1.4906,1.4914,1.4822,1.4801,1.4906,1.4906,1.4906,1.4906,1.4906,1.4906,1.4117,1.4205,1.4226,1.4336,1.4374,1.4453,1.4488,1.4536,1.4579,1.4675,1.4734,1.4764,1.4815,1.4891,1.4955,1.4967,1.4993,1.5008,1.5019,1.4932,1.4921,1.4911,1.4891,1.5014,1.5014,1.5107,1.5108,1.5109]},{"header":{"parameterUnit":"m.s-1","parameterCategory":1,"la1":30.2991,"la2":30.254,"lo1":-89.0895,"lo2":-89.0444,"dy":0.0017,"dx":0.0017,"nx":28,"ny":28,"refTime":"2023-11-07T03:00:00:Z","depth":0,"parameterNumber":3,"parameterNumberName":"V-component_of_WINDS"},"data":[0,0,0,0,0,0,0,0,0,0,0,0,0,0,0,0,0,0,0,0,0,0,0,0,0,0,0,0,0,0,0,0,0,0,0,0,0,0,0,0,0,0,0,0,0,0,0,0,0,0,0,0,0,0,0,0,0,0,2.9852,2.9853,0,2.9973,2.9974,2.9976,2.9967,2.9965,2.9963,2.9962,3.0081,3.0085,3.009,0,0,0,0,0,0,0,0,0,0,0,0,0,2.961,2.9614,2.9852,2.9854,2.9855,2.9973,2.9974,2.9976,2.9967,2.9965,2.9963,2.9961,3.0079,3.0085,3.0091,0,0,0,0,0,0,0,0,0,0,0,0,0,2.9721,2.9616,2.9852,2.9865,2.9867,2.9972,2.9974,2.9976,2.9968,2.9965,2.9962,2.996,3.0077,3.0084,3.0091,3.019,0,0,3.0114,3.0117,0,0,0,0,0,0,0,0,2.9715,2.973,2.9862,2.9864,2.9867,2.9952,2.9932,3.0048,2.9968,2.9929,2.9962,2.9958,3.004,3.005,3.0078,3.0195,3.02,3.0114,3.0119,3.0122,3.0124,0,0,0,0,0,0,0,2.9707,2.9725,2.99,2.9863,2.9867,2.9863,2.9876,2.9954,2.9998,2.9933,2.9932,2.9947,3.0041,3.0071,3.0081,3.0202,3.0114,3.012,3.0125,3.0128,3.0405,3.0408,0,0,0,0,0,0,2.9697,2.9718,2.9896,2.9903,2.9783,2.987,2.9884,2.9927,2.9997,3.0005,2.9949,2.9946,3.006,3.0073,3.0085,3.0205,3.0122,3.0128,3.0133,3.0402,3.0406,3.0409,0,0,0,0,0,0,2.9692,2.9713,2.9891,2.9811,2.9833,2.9877,2.9925,2.9931,2.9962,3.001,3.0017,2.9973,3.0059,3.0075,3.0164,3.0209,3.0132,3.0138,3.0399,3.0403,3.0407,3.0446,0,0,0,0,0,0,2.9685,2.9711,2.975,2.9812,2.9838,2.9969,2.9928,2.9936,2.9975,2.9972,3.0034,3.0041,3.0058,3.0153,3.0171,3.0218,3.0144,3.0395,3.0401,3.0406,3.0441,3.0451,3.046,0,0,0,0,0,2.9676,2.9755,2.9752,2.9773,2.9887,2.9972,2.9987,3.0005,2.9979,3.0018,3.0048,3.0039,3.0201,3.0162,3.0183,3.0232,3.0392,3.0399,3.0406,3.0436,3.0449,3.046,0,0,0,0,0,0,2.9696,2.9763,2.9761,2.9862,2.9912,2.997,3.002,3.0018,3.0075,3.007,3.0089,3.0103,3.0193,3.0221,3.0177,3.033,3.0293,3.0304,3.0309,3.0322,3.0331,3.0323,3.015,0,0,0,0,0,2.9712,2.9777,2.9831,2.9915,2.994,2.9976,3.0014,3.0024,3.0075,3.0096,3.0133,3.0182,3.0244,3.0284,3.0343,3.0444,3.0457,3.0488,3.0497,3.0505,3.0515,3.057,3.0584,3.0431,3.0431,3.0431,0,0,2.9746,2.9791,2.983,2.992,2.996,3.0025,2.9994,3.0064,3.0112,3.0106,3.0193,3.0222,3.0277,3.0373,3.0417,3.0399,3.056,3.0514,3.052,3.0525,3.0579,3.0593,3.0606,3.0436,3.0435,3.0435,0,0,2.9842,2.9882,2.9957,2.9997,3.0058,3.0081,3.0099,3.0159,3.0178,3.0266,3.0263,3.0319,3.0425,3.0465,3.05,3.061,3.0604,3.0628,3.0679,3.0733,3.0745,3.0756,3.0795,3.0809,3.0638,3.0638,3.0638,0,2.9876,2.9976,2.9995,3.0067,3.0106,3.0105,3.018,3.0218,3.0294,3.0321,3.03,3.0434,3.0471,3.0576,3.0603,3.063,3.0651,3.0622,3.0742,3.0753,3.0763,3.0801,3.0816,3.064,3.064,3.064,3.064,0,3.0015,3.0084,3.0137,3.0213,3.0258,3.0331,3.036,3.0403,3.0409,3.0434,3.0523,3.0568,3.0636,3.0662,3.0667,3.0767,3.0755,3.0738,3.07,3.078,3.0816,3.0831,3.0644,3.0643,3.0642,3.0642,0,0,3.0127,3.0213,3.0232,3.0267,3.0333,3.0386,3.0458,3.0527,3.0564,3.0616,3.0677,3.0767,3.0752,3.079,3.08,3.0847,3.0932,3.0825,3.0826,3.0844,3.1045,3.1058,3.1075,3.0928,3.0931,3.0933,3.1041,0,3.023,3.0361,3.038,3.0494,3.0558,3.0557,3.0619,3.0666,3.0691,3.0747,3.0774,3.0838,3.0813,3.0836,3.0883,3.0912,3.0973,3.0905,3.0984,3.0987,3.0971,3.1094,3.1108,3.1207,3.1055,3.1057,3.1059,0,3.0368,3.0426,3.0547,3.0606,3.0633,3.0689,3.0754,3.0808,3.0861,3.0875,3.0919,3.0923,3.0996,3.0955,3.1056,3.1009,3.1042,3.1062,3.1066,3.1075,3.1028,3.1106,3.1239,3.1254,3.1081,3.108,3.1078,0,3.0439,3.0547,3.0634,3.0663,3.0733,3.0772,3.0803,3.0853,3.0893,3.0949,3.0975,3.1037,3.1072,3.1119,3.114,3.1108,3.1239,3.12,3.1253,3.1252,3.1281,3.1279,3.1422,3.1302,3.1301,3.1301,3.1301,0,3.0553,3.0627,3.0666,3.072,3.0802,3.0823,3.0903,3.0932,3.0977,3.1035,3.1036,3.109,3.1114,3.1171,3.1187,3.1268,3.1283,3.1296,3.13,3.1297,3.1295,3.132,3.1314,3.1305,3.1304,3.1303,3.1303,0,3.0646,3.0676,3.077,3.0829,3.0845,3.0903,3.0953,3.1004,3.1028,3.1101,3.1119,3.1156,3.1224,3.1249,3.133,3.1341,3.1435,3.1432,3.1418,3.1419,3.1471,3.1466,3.1635,3.1658,3.1521,3.1523,3.1524,0,3.0718,3.0775,3.084,3.088,3.0912,3.0976,3.1017,3.1039,3.1081,3.1145,3.1188,3.1256,3.1311,3.1418,3.1451,3.1513,3.1513,3.1568,3.1522,3.1517,3.1514,3.1511,3.1517,3.1576,3.1578,3.1579,3.158,0,3.0841,3.0853,3.0913,3.0979,3.1028,3.108,3.1131,3.1163,3.1192,3.1239,3.1309,3.1352,3.1436,3.1502,3.1566,3.1595,3.1593,3.1594,3.1609,3.1607,3.1597,3.1604,3.1442,3.159,3.1589,3.1588,3.1588,3.1587,3.0926,3.0977,3.1031,3.1098,3.1139,3.1186,3.1237,3.1268,3.1327,3.1398,3.1406,3.1481,3.1531,3.1617,3.1649,3.1707,3.1692,3.1714,3.172,3.1726,3.173,3.1587,3.1718,3.1718,3.1718,3.1718,3.1717,0,3.105,3.1085,3.1147,3.1218,3.127,3.1264,3.132,3.1363,3.143,3.1478,3.1532,3.1612,3.1676,3.1715,3.1779,3.1818,3.1818,3.1834,3.1832,3.1838,3.1739,3.172,3.1833,3.1833,3.1833,3.1833,3.1833,3.1833,3.1121,3.1208,3.1226,3.1331,3.1365,3.144,3.1472,3.1515,3.1553,3.1643,3.1697,3.1722,3.1766,3.1833,3.1892,3.1901,3.1925,3.1942,3.195,3.1857,3.1845,3.1834,3.1816,3.1947,3.1947,3.2045,3.2046,3.2046]}]]